Location: Newark
(44.1667°N, 8.2500°E)
Time: 01:59:01
(UTC+00:00)

Transit 4A - Pass Details

Date: 17 December 2019
Orbit: 871 x 973 km, 66.8° (Epoch: 18 January)

Event Time Altitude Azimuth Distance (km) Brightness Sun altitude
Rises 17:45:44 0° 285° (WNW) 3,565 12.0 -20.0°
Reaches altitude 10° 17:50:37 10° 319° (NW) 2,597 10.6 -20.8°
Maximum altitude 17:52:19 11° 336° (NNW) 2,504 10.3 -21.1°
Drops below altitude 10° 17:54:02 10° 353° (N) 2,580 10.2 -21.4°
Enters shadow 17:56:01 - 10° (N) 2,860 10.2 -21.8°
